Temperature
3 3 2 2 2 1 1 -0 -1 -1 1 2 2 2 2 1 1 1 1 2 2 2 2 1 1 1 1 1 1 2 2 3 3 3 2 2 2 2
2 1 1 1 1 0 -0 -1 -1 -1 -1 0 1 1 1 -0 -0 -0 -0 0 0 1 1 0 0 -0 -0 -0 0 1 1 1 2 2 2 2 2 2
1 0 -0 -0 -1 -1 -1 -1 -2 -2 -2 -1 -0 -0 -1 -1 -1 -2 -1 -1 -1 -1 -1 -1 -1 -1 -1 -1 -1 -0 0 1 1 1 1 1 1 1
-1 -1 -1 -1 -2 -2 -2 -2 -2 -2 -2 -2 -1 -1 -1 -2 -2 -2 -2 -2 -2 -2 -2 -2 -2 -2 -2 -2 -1 -1 -1 -0 0 0 0 0 0 1
-2 -2 -2 -2 -2 -2 -3 -3 -3 -3 -3 -3 -2 -2 -2 -2 -3 -3 -3 -3 -3 -3 -3 -3 -2 -2 -2 -2 -2 -2 -1 -1 -1 -1 -0 -0 -0 -0
-3 -3 -3 -3 -3 -3 -3 -3 -3 -3 -3 -3 -3 -3 -3 -3 -3 -4 -4 -4 -4 -3 -3 -3 -3 -3 -3 -3 -2 -2 -2 -2 -1 -1 -1 -1 -1 -1
-4 -4 -4 -4 -4 -3 -3 -3 -3 -3 -3 -3 -3 -3 -3 -3 -3 -4 -4 -4 -4 -4 -4 -4 -4 -4 -3 -3 -3 -3 -2 -2 -2 -2 -2 -2 -2 -2
-4 -4 -4 -4 -4 -4 -3 -3 -3 -3 -3 -3 -3 -3 -3 -3 -3 -4 -4 -4 -4 -4 -4 -4 -4 -4 -4 -4 -4 -3 -3 -3 -2 -2 -2 -2 -2 -2
-5 -4 -4 -4 -4 -4 -4 -4 -4 -4 -3 -3 -3 -3 -3 -3 -3 -4 -4 -4 -4 -4 -4 -5 -5 -5 -4 -4 -4 -4 -4 -4 -3 -3 -3 -3 -2 -2
-5 -5 -5 -4 -4 -4 -4 -4 -4 -4 -4 -4 -4 -4 -4 -4 -4 -4 -4 -4 -4 -4 -5 -5 -5 -5 -5 -5 -5 -5 -5 -4 -4 -4 -3 -3 -3 -3
-5 -5 -5 -4 -4 -4 -4 -4 -4 -4 -4 -4 -4 -4 -4 -4 -4 -4 -4 -4 -5 -5 -5 -5 -5 -5 -5 -5 -5 -5 -5 -5 -5 -5 -4 -4 -4 -4
-5 -5 -5 -4 -4 -4 -4 -4 -4 -4 -4 -4 -4 -4 -4 -4 -4 -4 -4 -4 -4 -5 -5 -5 -6 -6 -6 -6 -6 -5 -5 -5 -5 -5 -5 -5 -5 -4
-5 -5 -5 -5 -5 -4 -4 -4 -4 -4 -4 -4 -4 -4 -4 -4 -4 -4 -4 -4 -5 -5 -5 -5 -6 -6 -6 -6 -6 -6 -6 -6 -6 -6 -6 -5 -5 -5
-5 -5 -5 -5 -5 -5 -4 -4 -4 -4 -4 -4 -4 -4 -4 -4 -4 -4 -4 -5 -5 -5 -5 -5 -5 -6 -6 -6 -6 -6 -6 -6 -6 -6 -6 -6 -5 -5
-6 -6 -5 -5 -5 -5 -5 -5 -5 -5 -5 -5 -5 -5 -5 -5 -5 -5 -5 -5 -5 -5 -5 -6 -6 -6 -6 -6 -6 -6 -7 -7 -6 -6 -6 -6 -6 -6
-6 -6 -6 -5 -5 -5 -5 -5 -5 -5 -5 -5 -5 -5 -5 -6 -6 -6 -6 -6 -6 -6 -6 -6 -6 -6 -7 -7 -7 -7 -7 -7 -7 -7 -6 -7 -7 -6
-6 -6 -6 -6 -6 -6 -6 -6 -6 -6 -6 -6 -6 -6 -6 -6 -6 -6 -6 -6 -6 -6 -6 -6 -7 -7 -7 -7 -7 -7 -7 -7 -7 -7 -7 -7 -7 -7
-6 -6 -6 -6 -6 -7 -7 -7 -6 -6 -6 -6 -6 -6 -6 -6 -6 -6 -6 -6 -7 -7 -7 -7 -7 -7 -7 -7 -7 -7 -7 -7 -7 -7 -8 -8 -8 -7
-7 -7 -7 -7 -7 -7 -7 -7 -7 -7 -7 -7 -7 -7 -7 -7 -6 -6 -7 -7 -7 -7 -7 -7 -7 -7 -8 -8 -7 -7 -7 -7 -8 -8 -8 -8 -8 -8
-7 -8 -8 -8 -8 -8 -7 -7 -7 -7 -7 -7 -7 -7 -7 -7 -7 -7 -7 -7 -7 -7 -7 -7 -7 -7 -7 -7 -7 -8 -8 -8 -8 -8 -8 -9 -9 -9
-8 -8 -8 -8 -8 -8 -8 -8 -8 -7 -7 -7 -7 -7 -7 -7 -7 -7 -7 -7 -7 -7 -8 -7 -7 -8 -8 -8 -8 -8 -8 -8 -8 -9 -9 -9 -9 -9
-8 -8 -8 -8 -8 -8 -8 -8 -8 -8 -8 -8 -8 -8 -8 -8 -8 -8 -8 -8 -8 -8 -8 -8 -8 -8 -9 -9 -9 -9 -9 -9 -9 -9 -9 -10 -10 -10
-8 -8 -8 -8 -8 -8 -8 -8 -8 -8 -8 -8 -8 -8 -8 -8 -8 -8 -8 -8 -8 -8 -8 -9 -9 -9 -9 -9 -10 -10 -10 -10 -10 -10 -10 -10 -10 -10
Wind_Speed
17 18 17 16 16 16 16 16 17 20 22 22 18 17 15 16 19 21 22 26 29 31 32 33 34 35 36 36 37 38 38 36 34 33 33 32 31 29
15 18 18 16 16 16 16 16 16 18 22 21 18 17 15 14 19 21 22 26 29 30 30 31 32 33 34 35 36 37 37 36 35 35 34 33 32 31
18 19 20 20 17 16 16 16 17 17 21 24 20 18 20 19 17 18 19 19 19 27 29 30 31 32 33 34 35 36 37 37 36 35 35 34 33 32
20 20 21 18 20 18 16 18 17 18 19 25 23 18 20 18 18 19 17 16 17 22 26 28 29 30 31 32 34 35 35 36 36 36 35 35 34 33
20 20 21 20 21 18 19 18 16 16 17 20 22 18 16 15 16 17 19 17 17 19 23 26 28 30 30 31 32 33 34 34 35 34 34 34 34 33
20 20 21 20 21 21 18 19 17 17 16 18 19 18 16 15 13 15 15 15 16 15 18 19 23 26 29 30 31 31 31 32 34 34 34 33 32 32
20 20 21 23 26 22 18 16 16 16 16 16 18 17 16 13 13 13 15 15 15 14 13 14 14 15 17 24 29 29 30 31 32 33 33 33 32 32
20 20 20 22 24 28 30 28 24 18 16 16 17 17 18 16 14 13 14 14 13 10 13 14 12 13 13 13 20 26 29 30 31 31 32 31 31 32
20 19 17 17 22 18 22 26 26 28 27 19 19 19 19 16 15 16 16 15 17 12 9 12 12 13 12 14 21 23 25 27 28 29 29 29 30 30
19 19 19 19 18 18 16 16 17 18 21 17 15 17 18 16 14 15 15 16 15 12 11 11 11 12 12 12 19 23 24 25 26 27 27 27 28 28
18 18 19 19 23 26 19 17 18 16 20 25 26 24 26 26 20 12 13 12 13 12 12 10 10 11 11 11 14 21 24 25 26 26 27 26 26 25
16 16 20 22 24 26 19 17 18 16 15 15 17 19 18 19 22 14 12 12 10 10 12 11 10 8 7 9 11 11 14 21 25 26 26 27 26 17
14 14 14 23 26 27 25 18 21 20 16 14 13 12 11 11 11 11 10 11 12 10 8 11 10 10 8 5 8 10 11 11 13 17 22 26 26 22
16 14 16 24 26 27 23 22 26 22 13 12 11 11 10 10 9 10 10 11 11 11 9 11 9 11 10 9 6 7 10 10 10 11 11 17 22 26
16 22 25 27 26 20 21 23 20 13 11 11 11 10 9 8 7 7 8 8 10 10 10 12 11 10 10 9 8 8 7 9 10 10 10 11 12 13
16 19 23 23 18 17 17 14 10 10 10 10 10 9 8 7 7 7 7 7 8 8 10 13 13 12 11 11 10 9 9 7 9 10 11 11 11 12
17 13 11 11 10 10 10 9 9 8 9 9 9 9 8 7 7 6 7 7 8 8 8 9 11 11 12 10 9 10 10 10 9 10 11 11 12 13
17 11 11 10 10 10 10 10 9 8 8 8 8 8 8 7 7 6 6 7 8 8 8 8 9 8 7 8 12 11 11 10 10 10 11 12 13 13
12 10 10 10 10 10 10 10 9 8 8 7 7 7 7 6 6 6 7 7 8 8 7 8 9 10 11 11 11 16 13 11 10 11 12 12 13 13
9 10 10 10 10 9 9 9 9 8 7 7 7 7 6 6 6 7 7 8 8 8 8 8 9 11 12 10 8 8 17 14 11 12 12 12 12 14
10 9 9 9 9 9 9 9 9 8 8 7 7 7 6 6 6 7 7 9 9 8 9 9 9 10 6 5 6 8 10 16 16 12 12 11 12 12
10 10 10 10 9 9 9 8 8 8 8 7 7 6 6 6 7 7 7 7 7 8 8 6 5 6 7 9 11 10 10 10 15 20 21 18 12 12
10 10 10 10 9 8 8 9 9 8 7 7 6 6 6 6 6 6 6 6 6 7 7 6 6 7 8 10 11 11 12 11 10 12 14 20 26 28
Wind_Direction
264 262 260 258 256 255 255 254 261 274 276 274 270 263 254 252 251 251 252 252 251 251 249 247 245 243 243 242 241 240 238 236 235 233 232 232 234 235
268 266 265 263 261 258 255 254 252 257 270 273 272 270 265 257 256 255 255 256 254 253 251 249 246 244 242 241 240 239 238 236 235 234 233 233 233 234
272 270 268 267 267 264 261 257 255 253 262 272 272 270 265 260 257 255 256 256 256 252 252 251 249 246 244 242 240 239 237 236 234 234 234 233 234 234
277 276 274 273 268 266 263 260 258 255 258 268 273 273 268 264 260 257 256 256 256 256 253 252 251 249 246 243 241 239 237 236 234 233 233 233 234 234
280 278 276 274 271 268 266 264 262 261 258 263 270 272 270 265 262 257 255 255 257 257 255 253 252 250 248 244 241 239 237 236 234 233 233 233 233 234
280 277 275 272 270 270 269 266 265 264 262 261 266 269 266 263 257 255 255 251 252 252 253 252 251 251 249 247 243 240 237 235 233 232 232 231 232 234
279 275 273 270 269 269 266 263 260 260 260 261 263 265 262 256 249 246 250 253 252 246 248 247 246 244 243 244 243 241 239 236 234 233 232 231 230 231
283 281 278 275 274 273 273 271 267 263 260 260 263 261 262 257 251 244 244 246 251 237 237 243 238 240 239 237 238 238 237 236 235 233 232 232 231 230
285 284 283 280 280 276 276 276 276 274 270 266 264 263 263 258 253 247 240 239 244 239 231 242 235 237 235 235 238 238 238 237 236 234 233 232 232 231
285 284 284 284 281 278 274 270 268 267 267 269 264 265 265 264 253 248 248 247 248 243 225 240 237 236 233 232 235 235 236 237 237 236 234 233 232 231
287 285 283 283 282 282 279 275 273 270 269 266 264 263 262 260 253 246 240 240 244 236 220 226 237 237 235 232 230 230 233 234 234 235 234 233 233 231
290 287 285 284 285 286 282 279 277 275 272 270 267 267 267 266 264 251 239 237 238 235 214 210 222 220 233 230 226 224 228 232 233 232 232 231 231 230
294 291 288 288 288 288 286 281 278 279 276 270 267 264 258 251 249 246 234 234 237 235 208 196 210 209 217 222 215 215 216 220 224 228 230 230 228 226
298 295 292 293 292 292 290 283 284 284 278 273 267 264 261 255 247 238 230 227 230 232 215 199 206 207 211 218 217 207 209 214 216 217 219 224 227 228
297 296 297 297 297 295 291 290 289 284 276 272 269 267 263 257 250 239 228 226 229 226 217 205 207 208 212 217 219 210 205 209 211 214 216 217 219 223
301 299 299 297 294 290 291 291 287 279 274 274 273 270 268 259 249 243 238 227 228 224 212 208 209 211 216 218 220 217 209 205 203 210 214 220 222 223
308 303 302 302 301 300 298 295 291 286 282 275 273 271 265 256 251 240 230 222 222 218 207 205 210 215 221 220 219 220 219 218 214 211 216 223 226 226
313 306 306 307 306 306 304 300 295 290 286 281 275 270 264 256 251 237 226 223 223 220 211 199 196 202 213 228 225 227 224 223 220 217 218 226 231 229
310 307 307 308 308 307 304 301 299 297 292 284 277 271 264 257 252 239 226 224 225 222 214 201 199 205 215 225 217 214 224 225 223 223 224 228 235 236
310 307 307 308 308 308 306 304 302 300 294 286 281 274 266 260 253 244 234 229 228 223 216 208 209 213 222 232 231 212 213 223 226 228 230 234 242 247
310 308 307 308 307 306 305 303 301 298 295 290 284 277 269 261 254 248 242 234 231 228 225 223 219 219 228 232 238 231 222 222 229 233 234 238 244 244
307 307 307 306 305 304 304 302 301 299 297 291 287 280 272 265 259 253 248 242 235 234 236 231 199 201 212 225 236 240 236 229 232 238 241 240 241 241
304 303 304 304 304 303 302 301 299 297 297 295 291 284 276 268 263 257 253 249 245 240 235 227 214 214 222 229 238 242 243 241 241 242 243 241 244 250
Height
1451 1448 1444 1441 1438 1435 1432 1429 1426 1417 1408 1409 1411 1409 1407 1404 1401 1400 1399 1398 1399 1399 1399 1401 1403 1405 1409 1413 1417 1423 1428 1432 1436 1440 1444 1447 1451 1454
1441 1437 1434 1431 1428 1425 1422 1419 1416 1410 1400 1393 1397 1399 1397 1394 1392 1391 1389 1388 1388 1388 1388 1390 1391 1394 1396 1400 1405 1410 1415 1420 1425 1429 1433 1437 1441 1444
1431 1427 1423 1420 1417 1414 1411 1408 1405 1402 1393 1382 1385 1387 1386 1384 1382 1381 1379 1378 1377 1377 1378 1379 1380 1383 1385 1389 1393 1398 1403 1408 1413 1417 1422 1426 1430 1434
1420 1416 1412 1410 1406 1403 1400 1396 1394 1391 1387 1377 1372 1376 1376 1375 1373 1371 1370 1368 1367 1366 1367 1368 1370 1372 1374 1378 1381 1386 1391 1396 1401 1406 1410 1415 1419 1424
1408 1404 1400 1398 1394 1391 1389 1385 1382 1380 1377 1371 1363 1364 1364 1365 1363 1361 1360 1358 1357 1357 1357 1357 1358 1361 1363 1366 1370 1374 1379 1384 1389 1394 1399 1403 1408 1413
1396 1392 1389 1386 1382 1379 1377 1374 1372 1369 1366 1362 1356 1354 1354 1354 1353 1351 1349 1348 1347 1347 1346 1347 1347 1349 1352 1355 1359 1363 1367 1372 1377 1382 1387 1392 1397 1401
1384 1381 1377 1374 1371 1369 1366 1362 1361 1358 1355 1351 1347 1344 1343 1343 1342 1341 1340 1339 1338 1338 1337 1337 1338 1338 1340 1343 1347 1351 1355 1360 1365 1370 1375 1380 1385 1390
1374 1370 1366 1363 1360 1357 1355 1352 1351 1347 1343 1341 1337 1334 1332 1333 1333 1332 1331 1330 1328 1329 1329 1327 1329 1328 1330 1333 1335 1339 1344 1349 1354 1359 1364 1369 1374 1379
1364 1360 1356 1353 1350 1347 1344 1341 1339 1336 1334 1332 1327 1324 1323 1323 1323 1322 1321 1319 1319 1321 1321 1319 1321 1320 1321 1323 1326 1329 1333 1338 1343 1348 1353 1358 1363 1368
1356 1352 1348 1344 1341 1338 1334 1330 1327 1324 1323 1320 1317 1314 1314 1313 1313 1312 1311 1311 1311 1312 1313 1312 1313 1313 1314 1315 1317 1320 1323 1328 1332 1337 1342 1348 1353 1358
1348 1344 1340 1335 1332 1329 1326 1321 1317 1314 1312 1310 1307 1305 1304 1303 1303 1302 1301 1302 1300 1301 1303 1304 1305 1307 1308 1308 1309 1312 1315 1319 1323 1327 1332 1338 1343 1348
1339 1335 1331 1327 1324 1321 1317 1312 1308 1305 1303 1300 1298 1296 1294 1293 1293 1293 1292 1292 1292 1293 1293 1296 1297 1300 1301 1301 1303 1305 1307 1310 1314 1318 1323 1328 1334 1338
1331 1327 1322 1319 1315 1311 1308 1304 1299 1297 1293 1291 1288 1286 1284 1283 1283 1283 1283 1284 1284 1284 1286 1287 1289 1292 1294 1295 1296 1298 1300 1303 1306 1310 1314 1319 1324 1329
1324 1319 1314 1310 1306 1302 1298 1294 1291 1288 1285 1282 1279 1277 1276 1275 1274 1274 1274 1275 1276 1277 1279 1280 1282 1285 1287 1289 1291 1292 1294 1297 1300 1303 1307 1311 1315 1319
1316 1311 1306 1301 1296 1292 1288 1285 1282 1279 1276 1273 1271 1269 1268 1267 1267 1266 1266 1267 1268 1269 1271 1273 1275 1278 1281 1283 1285 1287 1289 1291 1294 1297 1300 1303 1307 1311
1308 1302 1297 1293 1288 1284 1280 1276 1273 1271 1268 1266 1264 1262 1262 1261 1260 1259 1259 1260 1260 1261 1263 1266 1268 1272 1274 1277 1280 1281 1283 1285 1287 1290 1293 1296 1299 1302
1301 1295 1290 1286 1281 1277 1274 1270 1267 1264 1262 1260 1258 1256 1255 1254 1254 1253 1253 1254 1255 1256 1257 1260 1262 1265 1268 1271 1273 1275 1278 1280 1282 1284 1287 1289 1291 1294
1295 1290 1285 1281 1277 1273 1269 1265 1262 1259 1257 1254 1252 1251 1250 1249 1248 1248 1248 1249 1250 1251 1252 1254 1257 1260 1262 1264 1266 1268 1271 1273 1275 1277 1279 1281 1283 1285
1290 1285 1281 1277 1272 1268 1265 1261 1258 1255 1252 1250 1248 1246 1245 1244 1244 1244 1244 1244 1245 1246 1248 1249 1251 1253 1255 1257 1257 1260 1263 1266 1268 1270 1271 1272 1274 1276
1285 1281 1277 1272 1268 1265 1261 1257 1254 1251 1249 1246 1244 1243 1241 1241 1240 1240 1240 1240 1241 1242 1243 1244 1245 1247 1248 1251 1252 1253 1255 1258 1260 1261 1263 1264 1265 1267
1281 1277 1273 1269 1265 1261 1258 1254 1251 1248 1245 1243 1241 1239 1238 1237 1236 1236 1236 1236 1236 1237 1238 1238 1239 1241 1243 1245 1245 1245 1247 1249 1251 1253 1255 1256 1256 1256
1277 1273 1269 1265 1261 1258 1254 1251 1247 1245 1242 1239 1237 1235 1234 1233 1232 1232 1231 1231 1231 1232 1232 1233 1234 1235 1236 1237 1237 1238 1240 1241 1242 1243 1245 1245 1245 1244
1272 1268 1265 1261 1257 1254 1250 1247 1244 1241 1238 1236 1234 1232 1230 1229 1228 1227 1227 1227 1227 1227 1227 1227 1228 1228 1229 1230 1230 1231 1232 1232 1233 1233 1233 1233 1234 1234